Terug naar catalogus

CRRES DEB (CANISTER) *

LostHEO
NORAD 21592·DEBRIS·🇺🇸 United States

Gelanceerd Jul 25, 1990 vanaf Cape Canaveral Space Force Station

Loading…

Volgende Passages (komende 24 uur)

TLE

VerouderdSource: Space-Track

Epoch: Sep 25, 2025, 16:16 UTC

1 21592U 90065H   25268.67811008  .00004319  00000-0  15172-1 0  9997
2 21592  17.8166  89.5870 6648578 181.3215 175.2360  2.96838350  5498

Volg CRRES DEB (CANISTER) * in realtime met AllMySat

Download on the App Store